Weather History for Roseau, MN

Change the Weather History Date:

Saturday, March 2, 2013

  Actual Average Record
Temperature  
Mean Temperature 8 °F -  
Max Temperature 26 °F 26 °F 44 °F (1993)
Min Temperature -9 °F 2 °F -36 °F (1972)
Degree Days  
Heating Degree Days 56    
Moisture  
Dew Point 4 °F    
Average Humidity 66    
Maximum Humidity 80    
Minimum Humidity 55    
Precipitation  
Precipitation 0.00 in - - ()
Sea Level Pressure  
Sea Level Pressure 30.20 in    
Wind  
Wind Speed 4 mph (SSE)    
Max Wind Speed 16 mph    
Max Gust Speed -    
Visibility 10 miles    
Events      
Averages and records for this station are not official NWS values.
T = Trace of Precipitation, MM = Missing Value Source: NWS Daily Summary

Daily Weather History Graph

Daily Weather History Graph

Search for Another Location

Airport:

Trip Planner

Search our weather history database for the weather conditions in past years. The results will help you decide how hot, cold, wet, or windy it might be!

Date:

Astronomy

Mar. 02, 2013 Rise Set
Actual Time 7:02 AM CST 6:08 PM CST
Civil Twilight 6:30 AM CST 6:40 PM CST
Nautical Twilight 5:54 AM CST 7:16 PM CST
Astronomical Twilight 5:17 AM CST 7:53 PM CST
Moon No Moon Rise 9:01 AM CST (3/2)
Length of Visible Light 12h 09m
Length of Day
11h 06m
Waning Gibbous, 74% of the Moon is Illuminated
Mar 2
Waning Gibbous
Mar 4
Last Quarter
Mar 11
New
Mar 19
First Quarter
Mar 27
Full

Hourly Weather History & Observations

Time (CST) Temp. Windchill Dew Point Humidity Pressure Visibility Wind Dir Wind Speed Gust Speed Precip Events Conditions
12:14 AM 1.4 °F - -11.2 °F 56% 30.33 in 10.0 mi Calm Calm - N/A   Clear
12:34 AM -0.4 °F - -9.4 °F 66% 30.33 in 10.0 mi Calm Calm - N/A   Clear
12:54 AM -0.4 °F - -9.4 °F 66% 30.33 in 10.0 mi Calm Calm - N/A   Clear
1:14 AM -0.4 °F - -9.4 °F 66% 30.33 in 10.0 mi Calm Calm - N/A   Clear
1:34 AM 1.4 °F - -9.4 °F 61% 30.32 in 10.0 mi Calm Calm - N/A   Clear
1:54 AM 1.4 °F -6.2 °F -9.4 °F 61% 30.31 in 10.0 mi SE 3.5 mph - N/A   Clear
2:14 AM 1.4 °F -9.9 °F -9.4 °F 61% 30.31 in 10.0 mi SE 5.8 mph - N/A   Clear
2:34 AM -2.2 °F -14.2 °F -14.8 °F 55% 30.31 in 10.0 mi SE 5.8 mph - N/A   Clear
2:54 AM -7.6 °F -18.8 °F -16.6 °F 65% 30.30 in 10.0 mi SE 4.6 mph - N/A   Clear
3:14 AM -2.2 °F - -13.0 °F 60% 30.30 in 10.0 mi Calm Calm - N/A   Clear
3:34 AM -5.8 °F -14.5 °F -14.8 °F 65% 30.30 in 10.0 mi SSE 3.5 mph - N/A   Clear
3:54 AM -5.8 °F - -14.8 °F 65% 30.29 in 10.0 mi Calm Calm - N/A   Clear
4:14 AM -7.6 °F -16.5 °F -16.6 °F 65% 30.29 in 10.0 mi East 3.5 mph - N/A   Clear
4:34 AM -7.6 °F -16.5 °F -16.6 °F 65% 30.28 in 10.0 mi SE 3.5 mph - N/A   Clear
4:54 AM -7.6 °F -16.5 °F -16.6 °F 65% 30.28 in 10.0 mi ESE 3.5 mph - N/A   Clear
5:14 AM -7.6 °F -16.5 °F -16.6 °F 65% 30.29 in 10.0 mi ESE 3.5 mph - N/A   Clear
5:34 AM -9.4 °F -18.6 °F -18.4 °F 65% 30.28 in 10.0 mi SE 3.5 mph - N/A   Clear
5:54 AM -9.4 °F -18.6 °F -16.6 °F 71% 30.27 in 10.0 mi SE 3.5 mph - N/A   Clear
6:34 AM -9.4 °F - -16.6 °F 71% 30.27 in 10.0 mi Calm Calm - N/A   Clear
6:54 AM -9.4 °F - -18.4 °F 65% 30.27 in 10.0 mi Calm Calm - N/A   Clear
7:14 AM -9.4 °F -18.6 °F -16.6 °F 71% 30.26 in 10.0 mi SSE 3.5 mph - N/A   Clear
7:34 AM -9.4 °F - -18.4 °F 65% 30.26 in 10.0 mi Calm Calm - N/A   Clear
7:54 AM -9.4 °F -18.6 °F -16.6 °F 71% 30.26 in 10.0 mi SE 3.5 mph - N/A   Clear
8:15 AM -7.6 °F -16.5 °F -16.6 °F 65% 30.25 in 10.0 mi SSE 3.5 mph - N/A   Clear
8:34 AM -7.6 °F - -14.8 °F 71% 30.25 in 10.0 mi Calm Calm - N/A   Clear
8:54 AM -2.2 °F -12.5 °F -11.2 °F 66% 30.24 in 10.0 mi SE 4.6 mph - N/A   Scattered Clouds
9:14 AM 3.2 °F -7.8 °F -5.8 °F 66% 30.24 in 10.0 mi SSE 5.8 mph - N/A   Clear
9:34 AM 10.4 °F 2.2 °F 1.4 °F 67% 30.24 in 10.0 mi SSE 4.6 mph - N/A   Clear
9:54 AM 12.2 °F 2.9 °F 3.2 °F 67% 30.23 in 10.0 mi SE 5.8 mph - N/A   Clear
10:14 AM 15.8 °F 6.1 °F 5.0 °F 62% 30.23 in 10.0 mi South 6.9 mph - N/A   Scattered Clouds
10:34 AM 17.6 °F 9.3 °F 8.6 °F 68% 30.23 in 10.0 mi SSE 5.8 mph - N/A   Mostly Cloudy
10:54 AM 19.4 °F 10.4 °F 8.6 °F 63% 30.22 in 10.0 mi SSE 6.9 mph - N/A   Mostly Cloudy
11:14 AM 19.4 °F 8.6 °F 10.4 °F 68% 30.22 in 10.0 mi SSE 9.2 mph - N/A   Mostly Cloudy
11:34 AM 21.2 °F 10.9 °F 12.2 °F 68% 30.20 in 10.0 mi SSE 9.2 mph - N/A   Scattered Clouds
11:54 AM 23.0 °F 14.7 °F 12.2 °F 63% 30.21 in 10.0 mi SSE 6.9 mph - N/A   Scattered Clouds
12:14 PM 24.8 °F 17.9 °F 14.0 °F 64% 30.21 in 10.0 mi SSE 5.8 mph - N/A   Scattered Clouds
12:34 PM 24.8 °F 16.9 °F 15.8 °F 69% 30.21 in 10.0 mi SSE 6.9 mph - N/A   Clear
12:54 PM 24.8 °F 15.3 °F 15.8 °F 69% 30.20 in 10.0 mi South 9.2 mph - N/A   Clear
1:14 PM 26.6 °F 16.2 °F 15.8 °F 64% 30.20 in 10.0 mi South 11.5 mph - N/A   Clear
1:34 PM 26.6 °F 16.8 °F 15.8 °F 64% 30.19 in 10.0 mi South 10.4 mph - N/A   Clear
1:54 PM 26.6 °F 17.5 °F 15.8 °F 64% 30.19 in 10.0 mi South 9.2 mph - N/A   Scattered Clouds
2:14 PM 26.6 °F 16.8 °F 15.8 °F 64% 30.18 in 10.0 mi South 10.4 mph - N/A   Scattered Clouds
2:34 PM 26.6 °F 14.3 °F 15.8 °F 64% 30.15 in 10.0 mi South 16.1 mph - N/A   Scattered Clouds
2:54 PM 26.6 °F 15.7 °F 15.8 °F 64% 30.15 in 10.0 mi South 12.7 mph - N/A   Mostly Cloudy
3:14 PM 26.6 °F 15.2 °F 15.8 °F 64% 30.15 in 10.0 mi South 13.8 mph - N/A   Overcast
3:34 PM 26.6 °F 15.2 °F 15.8 °F 64% 30.14 in 10.0 mi South 13.8 mph - N/A   Mostly Cloudy
3:54 PM 26.6 °F 16.2 °F 15.8 °F 64% 30.14 in 10.0 mi South 11.5 mph - N/A   Mostly Cloudy
4:14 PM 26.6 °F 17.5 °F 15.8 °F 64% 30.14 in 10.0 mi South 9.2 mph - N/A   Mostly Cloudy
4:34 PM 26.6 °F 16.2 °F 14.0 °F 59% 30.13 in 10.0 mi South 11.5 mph - N/A   Mostly Cloudy
4:54 PM 26.6 °F 19.1 °F 15.8 °F 64% 30.13 in 10.0 mi South 6.9 mph - N/A   Overcast
5:14 PM 26.6 °F 18.2 °F 14.0 °F 59% 30.14 in 10.0 mi SSW 8.1 mph - N/A   Overcast
5:34 PM 26.6 °F 21.2 °F 14.0 °F 59% 30.13 in 10.0 mi SSW 4.6 mph - N/A   Overcast
5:54 PM 26.6 °F 20.0 °F 15.8 °F 64% 30.13 in 10.0 mi South 5.8 mph - N/A   Overcast
6:14 PM 24.8 °F 17.9 °F 17.6 °F 74% 30.13 in 10.0 mi South 5.8 mph - N/A   Overcast
6:34 PM 24.8 °F 17.9 °F 15.8 °F 69% 30.12 in 10.0 mi SSE 5.8 mph - N/A   Overcast
6:54 PM 26.6 °F 20.0 °F 15.8 °F 64% 30.12 in 10.0 mi SSE 5.8 mph - N/A   Overcast
7:14 PM 24.8 °F 20.5 °F 15.8 °F 69% 30.12 in 10.0 mi SSE 3.5 mph - N/A   Overcast
7:34 PM 24.8 °F - 15.8 °F 69% 30.12 in 10.0 mi Calm Calm - N/A   Overcast
7:54 PM 24.8 °F - 15.8 °F 69% 30.12 in 10.0 mi Calm Calm - N/A   Overcast
8:14 PM 26.6 °F - 15.8 °F 64% 30.11 in 10.0 mi Calm Calm - N/A   Overcast
8:34 PM 24.8 °F 20.5 °F 17.6 °F 74% 30.10 in 10.0 mi SE 3.5 mph - N/A   Overcast
8:54 PM 24.8 °F - 17.6 °F 74% 30.10 in 10.0 mi Calm Calm - N/A   Overcast
9:14 PM 24.8 °F - 15.8 °F 69% 30.10 in 10.0 mi Calm Calm - N/A   Overcast
9:34 PM 26.6 °F - 15.8 °F 64% 30.10 in 10.0 mi Calm Calm - N/A   Overcast
9:54 PM 24.8 °F - 15.8 °F 69% 30.10 in 10.0 mi Calm Calm - N/A   Overcast
10:15 PM 23.0 °F - 17.6 °F 80% 30.10 in 10.0 mi Calm Calm - N/A   Overcast
10:34 PM 23.0 °F - 17.6 °F 80% 30.09 in 10.0 mi Calm Calm - N/A   Overcast
10:54 PM 23.0 °F - 15.8 °F 74% 30.09 in 10.0 mi Calm Calm - N/A   Overcast
11:15 PM 24.8 °F - 15.8 °F 69% 30.08 in 10.0 mi Calm Calm - N/A   Overcast
11:34 PM 24.8 °F 20.5 °F 15.8 °F 69% 30.07 in 10.0 mi SE 3.5 mph - N/A   Overcast
11:54 PM 24.8 °F 20.5 °F 15.8 °F 69% 30.07 in 10.0 mi SE 3.5 mph - N/A   Overcast